OPS 4682 DEB, 18964

Orbit data source: Space-Track

OPS 4682 DEB, 18964 is space debris in LEO originally from a launch on Sat, 03 Apr 1965 UTC launched from the Air Force Western Test Range (AFWTR). Debris objects in space refer to the collection of defunct objects orbiting the Earth. Examples of debris include non-operational satellites, rocket bodies, and fragments generated from explosions, collisions, or faulty payload assembly.

Loading next visibility...
Identifier
18964, 1965-027AM
Orbit
LEO
Country
Flag of USUS
Related business
Manufacturer
Unknown
Mission
Spacecraft
Bus & Motor
Unknown
Mass
Unknown
Launch date (UTC)
1965-04-03 (61 years ago)
Launch vehicle
Unknown
Launch site
Air Force Western Test Range (AFWTR)
Object type
Payload
Rocket body
Debris
Shape & HBR
Unknown shape, 0.1 m
Radar Cross Section
Small (<0.1 m²)

Expand to show TLE details & history
Last TLE update: 14 hours ago

TLE from 14 hours ago
0 OPS 4682 DEB
1 18964U 65027AM  25340.82555853  .00000273  00000-0  91073-3 0  9998
2 18964  90.2414 355.5981 0031076 251.8371 291.0986 12.97623938830512
Epoch: 2025-12-06T19:48Z
TLE epoch observation values (Epoch: 2025-12-06T19:48:48.256Z)
Latitude
-2.73073°
Longitude
162.53784°
Altitude
1,266.192 km
Speed
7.226 km/s
True Right ascension
11h 42m 20s
True Declination
-2° 42' 56"
Sunlit
Object was in daylight at epoch
Visualization orbit readout
Latitude
Unknown
Longitude
Unknown
Altitude
Unknown
Speed
Unknown
Apparent Right ascension
Unknown
Apparent Declination
Unknown
Sunlit
N/A
Visualization observer readout
Local Sidereal Time
07:40:09
Azimuth
Unknown
Elevation
Unknown
Doppler factor
Unknown
Orbital elements
Apogee altitude
1,292.304 km
Perigee altitude
1,244.778 km
Semi-major axis
7,646.678 km
Eccentricity
0.00311
Inclination
90.2414°
RAAN
355.5981°
Arg. of periapsis
251.8371°
True anomaly
290.7659°
Mean anomaly
291.0986°
Eccentric anomaly
290.9323°
Mean motion
3.24589 °/min
Orbital period
110.91 mins
BSTAR
0.00091073
Loading maneuver chart data...
Computing Atmospheric mass density...
Loading historical data...
Loading historical data...
Loading historical data...
Loading historical data...
Loading historical data...
Loading historical data...
Loading historical data...

Documentation

Showing up to 5 results
|